Regional Weather Roundup
Issued by NWS

Home | Current Version | Previous Version | Graphics & Text | Print | Product List | Glossary On
Versions: 1 2 3 4 5 6 7 8 9 10 11 12 13 14 15 16 17 18 19 20 21 22 23 24 25 26 27 28 29 30 31 32 33 34 35 36 37 38 39 40 41 42 43 44 45 46 47 48 49 50
000
ASUS43 KFSD 041010
RWRSD

WEATHER ROUNDUP FOR SOUTH DAKOTA
NATIONAL WEATHER SERVICE SIOUX FALLS SD
500 AM CDT MON MAY 04 2015

NOTE: "FAIR" INDICATES FEW OR NO CLOUDS BELOW 12,000 FEET WITH NO
SIGNIFICANT WEATHER AND/OR OBSTRUCTIONS TO VISIBILITY.


SDZ001>005-009-010-012>017-041100-
NORTHWEST AND NORTH CENTRAL SOUTH DAKOTA

CITY           SKY/WX    TMP DP  RH WIND       PRES   REMARKS
BUFFALO          N/A     42  33  70 E8        30.05R
FAITH            N/A     48  21  34 E8        30.13R
MOBRIDGE       CLOUDY    38  26  62 CALM      30.13R
$$

SDZ012>016-024>037-041>051-057-063-072>074-041100-
SOUTHWEST AND SOUTH CENTRAL SOUTH DAKOTA

CITY           SKY/WX    TMP DP  RH WIND       PRES   REMARKS
RAPID CTY ARPT LGT RAIN  50  34  54 S9        30.14R
PIERRE         CLOUDY    42  25  50 SE8       30.13R
CUSTER         LGT RAIN  39  34  82 E7        30.16R
ELLSWORTH AFB  CLOUDY    51  33  50 S7        30.13R
PHILIP         CLOUDY    46  27  47 E3        30.12R
PINE RIDGE     CLOUDY    50  32  50 CALM      30.12R
SPEARFISH      MOCLDY    50  36  57 E17       30.09S
WINNER         FAIR      47  26  44 N6        30.11S
$$

SDZ004>011-016>023-039-040-041100-
NORTHEAST SOUTH DAKOTA

CITY           SKY/WX    TMP DP  RH WIND       PRES   REMARKS
ABERDEEN       MOCLDY    39  26  59 N6        30.14R
WATERTOWN      CLEAR     44  25  47 N5        30.12R
BROOKINGS      CLEAR     39  28  65 NW6       30.12R
SISSETON         N/A     44  27  51 NW10      30.11R
$$

SDZ017-020-022-023-036>040-048>070-041100-
SOUTHEAST SOUTH DAKOTA

CITY           SKY/WX    TMP DP  RH WIND       PRES   REMARKS
SIOUX FALLS    PTCLDY    50  28  42 N10       30.08R
HURON          PTCLDY    33  25  72 NW8       30.12R WCI  26
CHAMBERLAIN    PTCLDY    46  24  41 NE7       30.12R
MITCHELL       PTCLDY    39  33  79 NW6       30.11R
YANKTON        PTCLDY    48  30  49 N6        30.07R
$$

ABBREVIATIONS USED IN REMARKS
   TC - TEMPERATURE IN CELSIUS
  WCI - WIND CHILL INDEX
   HX - HEAT INDEX
  VSB - VISIBILITY




USA.gov is the U.S. government's official web portal to all federal, state and local government web resources and services.